Location: Unspecified
(41.5000°N, 0.0000°E)
Time: 00:42:31
(UTC+00:00)

Vanguard 3 - Pass Details

Date: 22 June 2019
Orbit: 507 x 3264 km, 33.4° (Epoch: 22 July)

Event Time Altitude Azimuth Distance (km) Brightness Sun altitude
Rises 09:45:12 0° 218° (SW) 6,877 11.8 56.3°
Reaches altitude 10° 09:51:04 10° 209° (SSW) 5,518 11.5 57.3°
Maximum altitude 10:03:15 29° 158° (SSE) 3,188 11.1 59.4°
Drops below altitude 10° 10:11:19 10° 103° (ESE) 3,602 11.1 60.7°
Sets 10:14:12 0° 91° (E) 4,234 11.2 61.2°
